Location: Lynndyl
(39.5182°N, 112.3738°W)
Time: 07:09:26
(UTC+00:00)

ISS - Visible Passes

Search period start: 06 July 2022 00:00
Search period end: 16 July 2022 00:00
Orbit: 414 x 420 km, 51.6° (Epoch: 06 July)

Date Brightness Start Highest point End Pass type
(mag) Time Alt. Az. Time Alt. Az. Time Alt. Az.
06 Jul -1.4 08:18:59 24° N 08:18:59 24° N 08:20:53 10° NE visible
06 Jul -0.7 09:54:13 10° NNW 09:55:29 12° N 09:56:46 10° NNE visible
06 Jul -0.7 11:31:51 10° NNW 11:33:26 13° NNE 11:35:01 10° NE visible
07 Jul -0.9 07:32:06 15° NE 07:32:06 15° NE 07:32:48 10° NE visible
07 Jul -0.7 09:05:12 10° NW 09:06:58 13° NNW 09:08:45 10° NNE visible
07 Jul -0.5 10:43:48 10° NNW 10:44:54 11° N 10:46:00 10° NNE visible
08 Jul -1.0 08:18:00 16° NNW 08:18:28 17° NNW 08:20:44 10° NNE visible
08 Jul -0.4 09:55:34 10° NNW 09:56:20 11° N 09:57:06 10° NNE visible
08 Jul -0.8 11:31:39 10° NNW 11:34:09 19° NNE 11:36:38 10° ENE visible
09 Jul -1.0 07:30:51 20° N 07:30:51 20° N 07:32:42 10° NNE visible
09 Jul -0.4 09:06:53 10° NNW 09:07:45 11° N 09:08:38 10° NNE visible
09 Jul -0.6 10:43:37 10° NNW 10:45:39 15° NNE 10:47:41 10° NE visible
10 Jul -1.1 06:43:26 18° NNE 06:43:26 18° NNE 06:44:37 10° NE visible
10 Jul -0.4 08:17:51 10° NNW 08:19:10 12° N 08:20:29 10° NNE visible
10 Jul -0.4 09:55:35 10° NNW 09:57:07 12° NNE 09:58:38 10° NE visible
10 Jul -1.9 11:31:28 10° NW 11:34:37 36° NNE 11:37:46 10° E visible
11 Jul -1.5 05:55:14 20° NE 05:55:14 20° NE 05:56:29 10° NE visible
11 Jul -0.5 07:28:47 10° NW 07:30:36 14° NNW 07:32:25 10° NNE visible
11 Jul -0.3 09:07:30 10° NNW 09:08:32 11° N 09:09:34 10° NNE visible
11 Jul -1.2 10:43:22 10° NNW 10:46:13 25° NNE 10:49:03 10° E visible
12 Jul -3.8 05:01:33 10° SW 05:04:53 84° NW 05:08:15 10° NE visible
12 Jul -0.8 06:39:46 10° WNW 06:42:04 17° NNW 06:44:22 10° NNE visible
12 Jul -0.1 08:19:10 10° NNW 08:19:55 11° N 08:20:38 10° NNE visible
12 Jul -0.7 09:55:17 10° NNW 09:57:44 18° NNE 10:00:10 10° ENE visible
12 Jul -3.8 11:31:28 10° NW 11:34:51 83° SW 11:38:12 10° SE visible
13 Jul -3.7 04:13:22 10° SW 04:16:37 53° SE 04:19:53 10° ENE visible
13 Jul -1.2 05:50:50 10° W 05:53:33 22° NNW 05:56:17 10° NNE visible
13 Jul -0.1 07:30:23 10° NNW 07:31:17 11° N 07:32:11 10° N visible
13 Jul -0.4 09:07:13 10° NNW 09:09:11 15° NNE 09:11:09 10° NE visible
13 Jul -3.0 10:43:12 10° NW 10:46:31 55° NE 10:49:49 10° ESE visible
14 Jul -2.9 03:25:28 10° SSW 03:28:24 29° SE 03:31:20 10° ENE visible
14 Jul -1.9 05:02:03 10° W 05:05:06 32° NNW 05:08:10 10° NE visible
14 Jul -0.2 06:41:18 10° NW 06:42:39 12° N 06:44:01 10° NNE visible
14 Jul -0.2 08:19:09 10° NNW 08:20:35 12° N 08:22:02 10° NE visible
14 Jul -2.0 09:55:01 10° NW 09:58:07 34° NNE 10:01:14 10° E visible
14 Jul -2.8 11:31:54 10° WNW 11:34:47 27° SW 11:37:40 10° SSE visible
15 Jul -2.8 04:13:25 10° WSW 04:16:41 51° NNW 04:19:58 10° NE visible
15 Jul -0.4 05:52:11 10° NW 05:54:03 14° NNW 05:55:55 10° NNE visible
15 Jul -0.2 07:31:00 10° N 07:31:57 11° N 07:32:55 10° NNE visible
15 Jul -1.3 09:06:51 10° NNW 09:09:40 24° NNE 09:12:27 10° E visible
15 Jul -3.6 10:43:18 10° WNW 10:46:34 48° SW 10:49:48 10° SSE visible
